Newcastle, WY

9:00 PM MST on December 06, 2019 (GMT -0700)
Mondell

Weather History for KECS - October, 2019

Change the Weather History Date:

Friday, October 11, 2019

  Actual Average (WUND) Record (WUND)
Temperature  
Mean Temperature 26 °F -  
Max Temperature 35 °F - - (-1)
Min Temperature 17 °F - - (-1)
Degree Days  
Heating Degree Days 39    
Moisture  
Dew Point 16 °F    
Average Humidity 69    
Maximum Humidity 86    
Minimum Humidity 48    
Precipitation  
Precipitation 0.00 in - - ()
Sea Level Pressure  
Sea Level Pressure 30.18 in    
Wind  
Wind Speed 12 mph (NW)    
Max Wind Speed 25 mph    
Max Gust Speed 34 mph    
Visibility 10 miles    
Events Snow    
Averages and records for this station are not official NWS values.
T = Trace of Precipitation, MM = Missing Value Source: NWS Daily Summary

Daily Weather History Graph

Daily Weather History Graph

Search for Another Location

Airport or City:

Astronomy

Oct. 11, 2019 Rise Set
Actual Time 7:06 AM MDT 6:20 PM MDT
Civil Twilight 6:37 AM MDT 6:49 PM MDT
Nautical Twilight 6:04 AM MDT 7:22 PM MDT
Astronomical Twilight 5:30 AM MDT 7:56 PM MDT
Moon 5:57 PM MDT (10/11) 4:42 AM MDT (10/11)
Length of Visible Light 12h 11m
Length of Day
11h 14m
Waxing Gibbous, 96% of the Moon is Illuminated
Oct 11
Waxing Gibbous
Oct 13
Full
Oct 21
Last Quarter
Oct 27
New
Nov 4
First Quarter

Hourly Weather History & Observations

Time (MDT) Temp. Windchill Dew Point Humidity Pressure Visibility Wind Dir Wind Speed Gust Speed Precip Events Conditions
12:15 AM 19.4 °F 7.2 °F 14.0 °F 80% 30.25 in 4.0 mi NW 11.5 mph - N/A Snow Light Snow
12:35 AM 19.4 °F 8.6 °F 15.8 °F 86% 30.24 in 4.0 mi NW 9.2 mph - N/A Snow Light Snow
12:55 AM 19.4 °F 9.5 °F 15.8 °F 86% 30.24 in 2.0 mi NW 8.1 mph - N/A Snow Light Snow
1:15 AM 19.4 °F 9.5 °F 15.8 °F 86% 30.24 in 2.0 mi NW 8.1 mph - N/A Snow Light Snow
1:35 AM 19.4 °F 7.9 °F 15.8 °F 86% 30.23 in 2.5 mi NW 10.4 mph - N/A Snow Light Snow
1:55 AM 19.4 °F 9.5 °F 15.8 °F 86% 30.23 in 10.0 mi NW 8.1 mph - N/A   Overcast
2:15 AM 19.4 °F 7.9 °F 14.0 °F 80% 30.22 in 10.0 mi NW 10.4 mph - N/A   Overcast
2:35 AM 19.4 °F 7.2 °F 14.0 °F 80% 30.22 in 10.0 mi NW 11.5 mph 20.7 mph N/A   Overcast
2:55 AM 19.4 °F 6.0 °F 14.0 °F 80% 30.21 in 10.0 mi NW 13.8 mph 19.6 mph N/A Snow Light Snow
3:15 AM 19.4 °F 6.0 °F 14.0 °F 80% 30.21 in 10.0 mi NW 13.8 mph 18.4 mph N/A Snow Light Snow
3:35 AM 19.4 °F 5.5 °F 14.0 °F 80% 30.21 in 10.0 mi NNW 15.0 mph 21.9 mph N/A Snow Light Snow
3:55 AM 19.4 °F 4.5 °F 12.2 °F 74% 30.21 in 10.0 mi NW 17.3 mph 23.0 mph N/A   Overcast
4:15 AM 19.4 °F 5.5 °F 12.2 °F 74% 30.22 in 10.0 mi NW 15.0 mph 20.7 mph N/A   Overcast
4:35 AM 19.4 °F 6.0 °F 12.2 °F 74% 30.22 in 10.0 mi NW 13.8 mph 20.7 mph N/A   Overcast
4:55 AM 19.4 °F 7.9 °F 14.0 °F 80% 30.22 in 10.0 mi NW 10.4 mph - N/A Snow Light Snow
5:15 AM 19.4 °F 8.6 °F 14.0 °F 80% 30.22 in 10.0 mi NNW 9.2 mph - N/A   Overcast
5:35 AM 19.4 °F 8.6 °F 14.0 °F 80% 30.22 in 10.0 mi NNW 9.2 mph - N/A Snow Light Snow
5:55 AM 19.4 °F 7.9 °F 14.0 °F 80% 30.22 in 10.0 mi NW 10.4 mph - N/A Snow Light Snow
6:15 AM 19.4 °F 7.9 °F 15.8 °F 86% 30.22 in 10.0 mi NW 10.4 mph 17.3 mph N/A Snow Light Snow
6:35 AM 19.4 °F 7.9 °F 14.0 °F 80% 30.22 in 10.0 mi NW 10.4 mph - N/A Snow Light Snow
6:55 AM 17.6 °F 5.7 °F 14.0 °F 86% 30.22 in 10.0 mi WNW 10.4 mph - N/A Snow Light Snow
7:15 AM 17.6 °F 5.7 °F 14.0 °F 86% 30.22 in 10.0 mi WNW 10.4 mph - N/A Snow Light Snow
7:35 AM 17.6 °F 5.7 °F 14.0 °F 86% 30.23 in 10.0 mi WNW 10.4 mph 17.3 mph N/A Snow Light Snow
7:55 AM 17.6 °F 4.3 °F 12.2 °F 79% 30.23 in 10.0 mi WNW 12.7 mph - N/A   Overcast
8:15 AM 17.6 °F 5.0 °F 12.2 °F 79% 30.23 in 10.0 mi WNW 11.5 mph 16.1 mph N/A   Mostly Cloudy
8:35 AM 17.6 °F 5.0 °F 12.2 °F 79% 30.24 in 10.0 mi WNW 11.5 mph - N/A   Mostly Cloudy
8:55 AM 19.4 °F 6.6 °F 14.0 °F 80% 30.24 in 10.0 mi NW 12.7 mph 17.3 mph N/A   Mostly Cloudy
9:15 AM 19.4 °F 7.9 °F 14.0 °F 80% 30.24 in 10.0 mi WNW 10.4 mph 17.3 mph N/A   Overcast
9:35 AM 19.4 °F 7.9 °F 14.0 °F 80% 30.25 in 10.0 mi NW 10.4 mph - N/A   Overcast
9:55 AM 21.2 °F 9.5 °F 14.0 °F 74% 30.24 in 10.0 mi WNW 11.5 mph - N/A   Overcast
10:15 AM 21.2 °F 10.9 °F 14.0 °F 74% 30.24 in 10.0 mi WNW 9.2 mph 17.3 mph N/A   Overcast
10:35 AM 23.0 °F 11.7 °F 14.0 °F 68% 30.24 in 10.0 mi WNW 11.5 mph - N/A   Overcast
10:55 AM 24.8 °F 13.4 °F 14.0 °F 64% 30.24 in 10.0 mi NW 12.7 mph 17.3 mph N/A   Overcast
11:15 AM 26.6 °F 14.7 °F 12.2 °F 55% 30.23 in 10.0 mi NW 15.0 mph 20.7 mph N/A   Scattered Clouds
11:35 AM 26.6 °F 13.1 °F 12.2 °F 55% 30.22 in 10.0 mi NW 19.6 mph 24.2 mph N/A   Clear
11:55 AM 28.4 °F 15.1 °F 14.0 °F 55% 30.22 in 10.0 mi NW 20.7 mph 27.6 mph N/A   Scattered Clouds
12:15 PM 28.4 °F 15.4 °F 15.8 °F 59% 30.21 in 10.0 mi NW 19.6 mph 28.8 mph N/A   Scattered Clouds
12:35 PM 30.2 °F 17.1 °F 17.6 °F 60% 30.21 in 10.0 mi NW 21.9 mph 28.8 mph N/A   Clear
12:55 PM 30.2 °F 17.1 °F 17.6 °F 60% 30.20 in 10.0 mi NW 21.9 mph 31.1 mph N/A   Clear
1:15 PM 32.0 °F 18.6 °F 17.6 °F 55% 30.19 in 10.0 mi NW 25.3 mph 34.5 mph N/A   Clear
1:35 PM 32.0 °F 18.6 °F 17.6 °F 55% 30.19 in 10.0 mi NW 25.3 mph 32.2 mph N/A   Clear
1:55 PM 32.0 °F 19.2 °F 17.6 °F 55% 30.18 in 10.0 mi NW 23.0 mph 31.1 mph N/A   Clear
2:15 PM 32.0 °F 19.8 °F 19.4 °F 60% 30.18 in 10.0 mi WNW 20.7 mph 27.6 mph N/A   Scattered Clouds
2:35 PM 33.8 °F 22.8 °F 19.4 °F 56% 30.17 in 10.0 mi NW 18.4 mph 31.1 mph N/A   Scattered Clouds
2:55 PM 33.8 °F 22.8 °F 19.4 °F 56% 30.17 in 10.0 mi NW 18.4 mph 28.8 mph N/A   Clear
3:15 PM 35.6 °F 24.8 °F 19.4 °F 52% 30.16 in 10.0 mi NW 19.6 mph 28.8 mph N/A   Clear
3:35 PM 35.6 °F 24.8 °F 19.4 °F 52% 30.15 in 10.0 mi NW 19.6 mph 25.3 mph N/A   Clear
3:55 PM 35.6 °F 25.2 °F 17.6 °F 48% 30.15 in 10.0 mi NW 18.4 mph 27.6 mph N/A   Clear
4:15 PM 35.6 °F 25.5 °F 17.6 °F 48% 30.15 in 10.0 mi NW 17.3 mph 26.5 mph N/A   Clear
4:35 PM 35.6 °F 25.5 °F 17.6 °F 48% 30.14 in 10.0 mi NW 17.3 mph 26.5 mph N/A   Clear
4:55 PM 35.6 °F 24.8 °F 17.6 °F 48% 30.14 in 10.0 mi NW 19.6 mph 26.5 mph N/A   Clear
5:15 PM 35.6 °F 25.5 °F 17.6 °F 48% 30.14 in 10.0 mi NW 17.3 mph 24.2 mph N/A   Clear
5:35 PM 35.6 °F 26.2 °F 17.6 °F 48% 30.14 in 10.0 mi NW 15.0 mph 24.2 mph N/A   Clear
5:55 PM 35.6 °F 26.2 °F 17.6 °F 48% 30.13 in 10.0 mi NNW 15.0 mph 23.0 mph N/A   Clear
6:15 PM 33.8 °F 25.3 °F 17.6 °F 52% 30.12 in 10.0 mi NNW 11.5 mph 18.4 mph N/A   Clear
6:35 PM 32.0 °F 24.2 °F 19.4 °F 60% 30.12 in 10.0 mi NNW 9.2 mph 16.1 mph N/A   Clear
6:55 PM 32.0 °F 25.6 °F 19.4 °F 60% 30.12 in 10.0 mi NNW 6.9 mph - N/A   Clear
7:15 PM 30.2 °F 23.4 °F 19.4 °F 64% 30.12 in 10.0 mi NNW 6.9 mph - N/A   Clear
7:35 PM 30.2 °F 21.9 °F 19.4 °F 64% 30.12 in 10.0 mi North 9.2 mph - N/A   Clear
7:55 PM 30.2 °F 22.6 °F 19.4 °F 64% 30.11 in 10.0 mi NNW 8.1 mph - N/A   Clear
8:20 PM 30.2 °F 24.3 °F 19.4 °F 64% 30.11 in 10.0 mi NNW 5.8 mph - N/A   Clear
8:35 PM 30.2 °F 23.4 °F 19.4 °F 64% 30.11 in 10.0 mi North 6.9 mph - N/A   Clear
8:55 PM 30.2 °F 24.3 °F 19.4 °F 64% 30.11 in 10.0 mi North 5.8 mph - N/A   Clear
9:15 PM 30.2 °F 23.4 °F 19.4 °F 64% 30.11 in 10.0 mi North 6.9 mph - N/A   Clear
9:35 PM 28.4 °F 22.2 °F 19.4 °F 69% 30.11 in 10.0 mi North 5.8 mph - N/A   Clear
9:55 PM 26.6 °F 20.0 °F 19.4 °F 74% 30.10 in 10.0 mi North 5.8 mph - N/A   Clear
10:15 PM 26.6 °F 19.1 °F 19.4 °F 74% 30.10 in 10.0 mi North 6.9 mph - N/A   Clear
10:35 PM 28.4 °F 19.7 °F 19.4 °F 69% 30.09 in 10.0 mi North 9.2 mph - N/A   Clear
10:55 PM 26.6 °F 18.2 °F 19.4 °F 74% 30.09 in 10.0 mi North 8.1 mph - N/A   Clear
11:15 PM 26.6 °F 17.5 °F 19.4 °F 74% 30.08 in 10.0 mi North 9.2 mph - N/A   Clear
11:35 PM 26.6 °F 17.5 °F 19.4 °F 74% 30.08 in 10.0 mi North 9.2 mph - N/A   Clear
11:55 PM 26.6 °F 18.2 °F 19.4 °F 74% 30.08 in 10.0 mi North 8.1 mph - N/A   Clear